Location: Krakow
(50.0830°N, 19.9170°E)
Time: 10:42:08
(UTC+02:00)

A-11 Canister half - Pass Details

Date: 21 March 2026
Orbit: 1523 x 1684 km, 47.3° (Epoch: 16 April)

Event Time Altitude Azimuth Distance (km) Brightness Sun altitude
Rises 10:58:04 0° 270° (W) 4,872 11.5 39.1°
Reaches altitude 10° 11:01:14 10° 269° (W) 3,865 11.1 39.3°
Maximum altitude 11:11:02 75° 187° (S) 1,636 10.2 39.6°
Drops below altitude 10° 11:20:29 10° 104° (ESE) 3,736 11.4 39.9°
Sets 11:23:30 0° 103° (ESE) 4,703 11.8 40.0°
